FW7644 Weather Reports


Display with metric or nautical units.
time (UTC)temp
F
wind
direction
speed
MPH
gust
MPH
rain 1hr
in
rain 24hr
in
rain mn
in
humidity
%
barometer
mb
20260503025332 56 0.0 0.0 0.00 0.19 0.19 99 1022.5
20260503024830 56 0.0 0.0 0.00 0.19 0.19 99 1022.7
20260503024329 56 0.0 0.0 0.00 0.19 0.19 99 1022.6
20260503023828 56 0.0 0.0 0.00 0.19 0.19 99 1022.5
20260503023326 56 0.0 0.0 0.00 0.19 0.19 99 1022.7
20260503022825 56 0.0 0.0 0.00 0.19 0.19 99 1022.5
20260503022323 56 0.0 0.0 0.00 0.19 0.19 99 1022.7
20260503021821 57 0.0 0.0 0.00 0.19 0.19 99 1022.6
20260503021319 57 0.0 0.0 0.00 0.19 0.19 99 1022.6
20260503020817 57 0.0 0.0 0.00 0.19 0.19 99 1022.6
20260503020315 57 0.0 0.0 0.00 0.19 0.19 99 1022.6
20260503015813 57 0.0 0.0 0.00 0.19 0.19 98 1022.5
20260503015312 57 0.0 0.0 0.00 0.19 0.19 98 1022.6
20260503014810 57 0.0 0.0 0.00 0.19 0.19 98 1022.6
20260503014308 57 0.0 0.0 0.00 0.19 0.19 98 1022.6
20260503013806 57 0.0 0.0 0.00 0.19 0.19 98 1022.6
20260503013304 57 0.0 0.0 0.00 0.19 0.19 98 1022.7
20260503012802 57 0.0 0.0 0.00 0.19 0.19 98 1022.7
20260503012300 57 0.0 0.0 0.00 0.19 0.19 98 1022.7
20260503011757 57 0.0 0.0 0.00 0.19 0.19 98 1022.7
20260503011255 57 0.0 0.0 0.00 0.19 0.19 98 1022.7
20260503010754 57 0.0 0.0 0.00 0.19 0.19 98 1022.5
20260503010252 57 0.0 0.0 0.00 0.19 0.19 98 1022.4
20260503005751 57 0.0 0.0 0.00 0.19 0.19 98 1022.4
20260503005249 57 0.0 0.0 0.00 0.19 0.19 98 1022.6
20260503004747 57 0.0 0.0 0.00 0.19 0.19 98 1022.7
20260503004245 58 0.0 0.0 0.00 0.19 0.19 98 1022.7
20260503003743 58 0.0 0.0 0.00 0.19 0.19 98 1022.6
20260503003241 58 0.0 0.0 0.00 0.19 0.19 97 1022.6
20260503002739 58 0.0 0.0 0.00 0.19 0.19 97 1022.3
20260503002237 58 0.0 0.0 0.00 0.19 0.19 97 1022.2
20260503001735 58 0.0 0.0 0.00 0.19 0.19 97 1022.5
20260503001233 58 0.0 0.0 0.00 0.19 0.19 97 1022.4
20260503000732 58 0.0 0.0 0.00 0.19 0.19 97 1022.5
20260503000230 58 0.0 0.0 0.00 0.19 0.19 97 1022.1
20260502235728 58 0.0 0.0 0.00 0.19 0.19 97 1022.0
20260502235226 59 0.0 0.0 0.00 0.19 0.19 97 1022.1
20260502234725 58 0.0 0.0 0.00 0.19 0.19 97 1021.7
20260502234223 58 0.0 0.0 0.00 0.19 0.19 96 1021.2
20260502233721 59 0.0 0.0 0.00 0.19 0.19 96 1021.1
20260502233219 59 0.0 0.0 0.00 0.19 0.19 96 1021.8
20260502232718 59 0.0 0.0 0.00 0.19 0.19 96 1022.1
20260502232216 59 0.0 0.0 0.00 0.19 0.19 96 1022.3
20260502231714 59 0.0 0.0 0.00 0.19 0.19 96 1022.4
20260502231213 59 0.0 0.0 0.00 0.19 0.19 96 1021.5
20260502230711 59 0.0 0.0 0.00 0.19 0.19 96 1020.6
20260502230210 59 0.0 0.0 0.00 0.19 0.19 96 1019.6
20260502225708 59 0.0 0.0 0.00 0.19 0.19 96 1019.4
20260502225206 59 0.0 0.0 0.00 0.19 0.19 96 1020.6
20260502224704 59 0.0 0.0 0.01 0.19 0.19 96 1021.6
20260502224202 59 0.0 0.0 0.01 0.19 0.19 96 1020.8
20260502223700 59 0.0 0.0 0.02 0.19 0.19 96 1020.4
20260502223159 59 0.0 0.0 0.02 0.19 0.19 96 1020.5
20260502222657 59 0.0 0.0 0.02 0.19 0.19 96 1020.4
20260502222156 59 0.0 0.0 0.02 0.19 0.19 96 1020.0
20260502221654 59 0.0 0.0 0.03 0.19 0.19 96 1020.0
20260502221153 59 0.0 0.0 0.03 0.19 0.19 96 1020.3
20260502220651 59 0.0 0.0 0.03 0.19 0.19 96 1020.2
20260502220150 59 0.0 0.0 0.03 0.19 0.19 95 1020.4
20260502215648 59 0.0 0.0 0.04 0.19 0.19 95 1020.8
20260502215146 59 0.0 0.0 0.04 0.19 0.19 95 1020.8
20260502214645 59 0.0 0.0 0.04 0.18 0.18 95 1021.1
20260502214143 59 0.0 0.0 0.04 0.18 0.18 94 1021.5
20260502213641 60 0.0 0.0 0.04 0.18 0.18 94 1021.6
20260502213140 60 0.0 0.0 0.03 0.17 0.17 93 1021.7
20260502212638 60 0.0 0.0 0.03 0.17 0.17 93 1021.7
20260502212136 60 0.0 0.0 0.03 0.17 0.17 92 1021.9
20260502211634 60 0.0 0.0 0.03 0.17 0.17 91 1022.0
20260502211133 60 0.0 0.0 0.03 0.17 0.17 90 1021.8
20260502210631 60 0.0 0.0 0.02 0.16 0.16 89 1022.1
20260502210129 60 0.0 0.0 0.02 0.16 0.16 88 1022.4
20260502205628 61 0.0 0.0 0.01 0.15 0.15 87 1022.5
20260502205126 61 0.0 0.0 0.01 0.15 0.15 85 1022.7
20260502204624 62 0.0 0.0 0.00 0.14 0.14 84 1022.3
20260502204123 62 0.0 0.0 0.00 0.14 0.14 83 1022.4
20260502203621 62 0.0 0.0 0.00 0.14 0.14 84 1022.3
20260502203119 62 0.0 0.0 0.00 0.14 0.14 84 1022.2
20260502202617 62 0.0 0.0 0.00 0.14 0.14 85 1022.2
20260502202116 62 0.0 0.0 0.00 0.14 0.14 85 1022.0
20260502201614 62 0.0 0.0 0.00 0.14 0.14 85 1021.7
20260502201112 62 0.0 0.0 0.00 0.14 0.14 84 1021.7
20260502200611 62 0.0 0.0 0.00 0.14 0.14 84 1021.6
20260502200109 62 0.0 0.0 0.00 0.14 0.14 84 1021.6
20260502195607 63 0.0 0.0 0.00 0.14 0.14 84 1021.4
20260502195105 63 0.0 0.0 0.00 0.14 0.14 84 1021.5
20260502194603 63 0.0 0.0 0.00 0.14 0.14 84 1021.2
20260502194102 63 0.0 0.0 0.00 0.14 0.14 84 1021.1
20260502193600 63 0.0 0.0 0.00 0.14 0.14 84 1020.7
20260502193058 63 0.0 0.0 0.00 0.14 0.14 82 1020.7
20260502192556 64 0.0 0.0 0.00 0.14 0.14 82 1020.4
20260502192055 64 0.0 0.0 0.00 0.14 0.14 82 1020.4
20260502191553 64 0.0 0.0 0.00 0.14 0.14 81 1020.5
20260502191052 64 0.0 0.0 0.00 0.14 0.14 81 1020.3
20260502190550 65 0.0 0.0 0.00 0.14 0.14 81 1020.4
20260502190049 64 0.0 0.0 0.00 0.14 0.14 81 1020.6
20260502185547 64 0.0 0.0 0.00 0.14 0.14 80 1020.4
20260502185045 64 0.0 0.0 0.00 0.14 0.14 79 1020.5
20260502184543 64 0.0 0.0 0.00 0.14 0.14 79 1020.3
20260502184042 64 0.0 0.0 0.00 0.14 0.14 78 1020.5
20260502183540 64 0.0 0.0 0.00 0.14 0.14 78 1020.5
20260502183038 64 0.0 0.0 0.00 0.14 0.14 77 1020.7
20260502182536 65 0.0 0.0 0.00 0.14 0.14 75 1020.3
20260502182034 65 0.0 0.0 0.00 0.14 0.14 74 1020.3
20260502181532 65 0.0 0.0 0.00 0.14 0.14 75 1020.2
20260502181030 65 0.0 0.0 0.00 0.14 0.14 75 1020.2
20260502180528 66 0.0 0.0 0.00 0.14 0.14 76 1020.4
20260502170508 62 0.0 0.0 0.00 0.14 0.14 88 1020.2
20260502163958 61 0.0 0.0 0.00 0.14 0.14 90 1020.5
20260502163457 61 0.0 0.0 0.00 0.14 0.14 90 1020.5
20260502162955 61 0.0 0.0 0.00 0.14 0.14 90 1020.5
20260502162453 61 0.0 0.0 0.00 0.14 0.14 92 1020.4
20260502161952 61 0.0 0.0 0.00 0.14 0.14 92 1020.7
20260502161450 61 0.0 0.0 0.00 0.14 0.14 93 1020.6
20260502160948 61 0.0 0.0 0.00 0.14 0.14 93 1020.7
20260502160447 61 0.0 0.0 0.00 0.14 0.14 93 1020.9
20260502151931 60 0.0 0.0 0.02 0.14 0.14 95 1022.4
20260502151429 60 0.0 0.0 0.02 0.14 0.14 95 1022.6
20260502150927 60 0.0 0.0 0.02 0.14 0.14 94 1022.6
20260502150425 60 0.0 0.0 0.02 0.14 0.14 94 1022.8
20260502130342 67 0.0 0.0 0.01 0.01 0.01 90 1023.3
20260502123330 68 0.0 0.0 0.01 0.01 0.01 86 1022.6
20260502122828 68 0.0 0.0 0.00 0.00 0.00 86 1022.6
20260502122326 68 0.0 0.0 0.00 0.00 0.00 85 1022.6
20260502121824 68 0.0 0.0 0.00 0.00 0.00 84 1022.5
20260502121321 69 0.0 0.0 0.00 0.00 0.00 84 1022.4
20260502120819 69 0.0 0.0 0.00 0.00 0.00 85 1022.3
20260502120317 69 0.0 0.0 0.00 0.00 0.00 85 1022.2
20260502115815 69 0.0 0.0 0.00 0.00 0.00 84 1022.2
20260502115314 68 0.0 0.0 0.00 0.00 0.00 86 1022.1
20260502114812 68 0.0 0.0 0.00 0.00 0.00 86 1022.0
20260502114310 68 0.0 0.0 0.00 0.00 0.00 91 1021.8
20260502113808 66 0.0 0.0 0.00 0.00 0.00 95 1021.7
20260502113306 64 0.0 0.0 0.00 0.00 0.00 97 1021.6
20260502112805 63 0.0 0.0 0.00 0.00 0.00 98 1021.6
20260502112305 63 0.0 0.0 0.00 0.00 0.00 98 1021.5
20260502111801 63 0.0 0.0 0.00 0.00 0.00 99 1021.4
20260502111300 62 0.0 0.0 0.00 0.00 0.00 99 1021.3
20260502110758 62 0.0 0.0 0.00 0.00 0.00 99 1021.1
20260502110256 61 0.0 0.0 0.00 0.00 0.00 99 1020.9
20260502105755 61 0.0 0.0 0.00 0.00 0.00 99 1020.9
20260502105253 60 0.0 0.0 0.00 0.00 0.00 99 1020.8
20260502104751 60 0.0 0.0 0.00 0.00 0.00 99 1020.7
20260502104250 59 0.0 0.0 0.00 0.00 0.00 99 1020.6
20260502103748 59 0.0 0.0 0.00 0.00 0.00 99 1020.5
20260502103246 59 0.0 0.0 0.00 0.00 0.00 99 1020.3
20260502102745 58 0.0 0.0 0.00 0.00 0.00 99 1020.3
20260502102243 58 0.0 0.0 0.00 0.00 0.00 99 1020.2
20260502101741 58 0.0 0.0 0.00 0.00 0.00 99 1020.1
20260502101240 58 0.0 0.0 0.00 0.00 0.00 99 1020.1
20260502100738 58 0.0 0.0 0.00 0.00 0.00 99 1020.0
20260502100237 58 0.0 0.0 0.00 0.00 0.00 99 1019.9
20260502091220 57 0.0 0.0 0.00 0.00 0.00 99 1019.2
20260502090719 57 0.0 0.0 0.00 0.00 0.00 99 1019.1
20260502090218 57 0.0 0.0 0.00 0.00 0.00 99 1019.1
20260502071142 57 0.0 0.0 0.00 0.00 0.00 99 1018.6
20260502070640 57 0.0 0.0 0.00 0.00 0.00 99 1018.5
20260502070139 57 0.0 0.0 0.00 0.00 0.00 99 1018.5
20260502065637 57 0.0 0.0 0.00 0.00 0.00 99 1018.6
20260502065136 57 0.0 0.0 0.00 0.00 0.00 99 1018.7
20260502064634 57 0.0 0.0 0.00 0.00 0.00 99 1018.7
20260502064133 57 0.0 0.0 0.00 0.00 0.00 99 1018.7
20260502063631 58 0.0 0.0 0.00 0.00 0.00 99 1018.8
20260502063129 58 0.0 0.0 0.00 0.00 0.00 99 1018.9
20260502062628 58 0.0 0.0 0.00 0.00 0.00 99 1018.9
20260502062127 58 0.0 0.0 0.00 0.00 0.00 99 1018.8
20260502061626 58 0.0 0.0 0.00 0.00 0.00 99 1018.6
20260502061124 58 0.0 0.0 0.00 0.00 0.00 99 1018.6
20260502060623 58 0.0 0.0 0.00 0.00 0.00 99 1018.6
20260502060121 58 0.0 0.0 0.00 0.00 0.00 99 1018.6
20260502055620 58 0.0 0.0 0.00 0.00 0.00 99 1018.6
20260502055118 58 0.0 0.0 0.00 0.00 0.00 99 1018.5
20260502054616 58 0.0 0.0 0.00 0.00 0.00 99 1018.6
20260502054115 58 0.0 0.0 0.00 0.00 0.00 99 1018.7
20260502053613 58 0.0 0.0 0.00 0.00 0.00 99 1018.6
20260502053111 58 0.0 0.0 0.00 0.00 0.00 99 1018.7
20260502052609 58 0.0 0.0 0.00 0.00 0.00 99 1018.8
20260502052108 58 0.0 0.0 0.00 0.00 0.00 99 1018.9
20260502051607 58 0.0 0.0 0.00 0.00 0.00 99 1019.0
20260502051105 58 0.0 0.0 0.00 0.00 0.00 99 1019.1
20260502050603 58 0.0 0.0 0.00 0.00 0.00 99 1019.2
20260502050101 58 0.0 0.0 0.00 0.00 0.00 99 1019.2
20260502045600 58 0.0 0.0 0.00 0.00 0.00 99 1019.3
20260502045058 59 0.0 0.0 0.00 0.00 0.00 99 1019.3
20260502044556 59 0.0 0.0 0.00 0.00 0.00 99 1019.4
20260502044055 59 0.0 0.0 0.00 0.00 0.00 99 1019.5
20260502043553 60 0.0 0.0 0.00 0.00 0.00 99 1019.6
20260502043052 60 0.0 0.0 0.00 0.00 0.00 99 1019.6
20260502042550 60 0.0 0.0 0.00 0.00 0.00 99 1019.6
20260502042048 60 0.0 0.0 0.00 0.00 0.00 99 1019.5
20260502041546 60 0.0 0.0 0.00 0.00 0.00 99 1019.4
20260502041044 60 0.0 0.0 0.00 0.00 0.00 99 1019.4
20260502040543 60 0.0 0.0 0.00 0.00 0.00 99 1019.4
20260502040041 60 0.0 0.0 0.00 0.00 0.00 99 1019.3
20260502035540 60 0.0 0.0 0.00 0.00 0.00 99 1019.4
20260502035038 60 0.0 0.0 0.00 0.00 0.00 99 1019.3
20260502034536 60 0.0 0.0 0.00 0.00 0.00 99 1019.4
20260502034035 60 0.0 0.0 0.00 0.00 0.00 99 1019.4
20260502033533 61 0.0 0.0 0.00 0.00 0.00 99 1019.3
20260502033031 61 0.0 0.0 0.00 0.00 0.00 99 1019.4
20260502032530 61 0.0 0.0 0.00 0.00 0.00 99 1019.4
20260502032029 61 0.0 0.0 0.00 0.00 0.00 98 1019.5
20260502031527 61 0.0 0.0 0.00 0.00 0.00 98 1019.5
20260502031026 61 0.0 0.0 0.00 0.00 0.00 98 1019.6
20260502030524 62 0.0 0.0 0.00 0.00 0.00 98 1019.7
20260502030022 62 0.0 0.0 0.00 0.00 0.00 98 1019.7
20260502025520 62 0.0 0.0 0.00 0.00 0.00 98 1019.7